Regional Weather Roundup
Issued by NWS Sioux Falls, SD

Home | Current Version | Previous Version | Graphics & Text | Print | Product List | Glossary On
Versions: 1 2 3 4 5 6 7 8 9 10 11 12 13 14 15 16 17 18 19 20 21 22 23 24 25 26 27 28 29 30 31 32 33 34 35 36 37 38 39 40 41 42 43 44 45 46 47 48 49 50
000
ASUS43 KFSD 040402
RWRFSD

WEATHER ROUNDUP FOR SE SOUTH DAKOTA/SW MINNESOTA/NW IOWA
NATIONAL WEATHER SERVICE SIOUX FALLS SD
1100 PM CDT MON AUG 03 2015

NOTE: "FAIR" INDICATES FEW OR NO CLOUDS BELOW 12,000 FEET WITH NO
SIGNIFICANT WEATHER AND OR OBSTRUCTIONS TO VISIBILITY.


SDZ038>040-050-052>070-040500-
SOUTHEAST SOUTH DAKOTA

CITY           SKY/WX    TMP DP  RH WIND       PRES   REMARKS
BROOKINGS      CLEAR     63  54  72 CALM      30.01S
CHAMBERLAIN    NOT AVBL
HURON          CLEAR     67  57  70 SE7       29.96S
MADISON        FAIR      63  59  88 NE5       30.00S
MITCHELL       PTCLDY    65  59  81 E6        29.97S
SIOUX FALLS    PTCLDY    64  60  87 NE3       29.98R
WINNER         MOCLDY    71  59  65 SE6       29.97R
YANKTON        PTCLDY    70  63  78 CALM      29.97R
$$

MNZ071-072-080-081-089-090-097-098-040500-
SOUTHWEST MINNESOTA

CITY           SKY/WX    TMP DP  RH WIND       PRES   REMARKS
FAIRMONT       CLEAR     63  52  67 CALM      29.97S
JACKSON        CLEAR     63  59  88 CALM      29.99S
LUVERNE        CLEAR     64  59  82 CALM      29.99S
MARSHALL       CLEAR     61  52  72 W5        30.00R
MONTEVIDEO     CLEAR     61  48  63 NE5       29.99R
PIPESTONE      CLEAR     64  57  77 CALM      30.00S
REDWOOD FALLS  CLEAR     68  53  58 NW6       29.96R
TRACY          CLEAR     63  57  82 SW5       29.99R
WINDOM         CLEAR     63  57  82 CALM      29.99S
WORTHINGTON    CLEAR     63  54  72 NW3       30.00R
$$

IAZ001>003-012>014-020>022-031-032-NEZ013-014-SDZ071-040500-
NORTHWEST IOWA

CITY           SKY/WX    TMP DP  RH WIND       PRES   REMARKS
DENISON        MOCLDY    64  63  94 SE3       29.97S
ESTHERVILLE    CLEAR     61  57  87 NW5       29.98R
SIOUX CITY     MOCLDY    70  62  76 SE5       29.97R
SPENCER        CLEAR     64  59  83 CALM      29.98R
$$

ABBREVIATIONS USED IN REMARKS
   TC - TEMPERATURE IN CELSIUS
  WCI - WIND CHILL INDEX
   HX - HEAT INDEX
  VSB - VISIBILITY



USA.gov is the U.S. government's official web portal to all federal, state and local government web resources and services.